Time,TemperatureF,DewpointF,PressureIn,WindDirection,WindDirectionDegrees,WindSpeedMPH,WindSpeedGustMPH,Humidity,HourlyPrecipIn,Conditions,Clouds,dailyrainin,SolarRadiationWatts/m^2,SoftwareType,DateUTC
2013-05-24 00:00:00,52.9,49.5,29.71,North,-999,11.0,15.0,88,0.09,,,0.00,0.00,VWS V14.01,2013-05-24 06:00:00,
2013-05-24 00:05:00,52.9,49.8,29.71,North,-999,10.0,15.0,89,0.09,,,0.00,0.00,VWS V14.01,2013-05-24 06:05:00,
2013-05-24 00:10:00,52.7,49.5,29.69,North,-999,14.0,15.0,89,0.09,,,0.00,0.00,VWS V14.01,2013-05-24 06:10:00,
2013-05-24 00:15:00,52.7,49.5,29.70,North,-999,12.0,15.0,89,0.09,,,0.00,0.00,VWS V14.01,2013-05-24 06:15:00,
2013-05-24 00:20:00,52.7,49.5,29.70,North,-999,12.0,16.0,89,0.09,,,0.00,0.00,VWS V14.01,2013-05-24 06:20:00,
2013-05-24 00:25:00,52.7,49.5,29.70,North,-999,13.0,16.0,89,0.09,,,0.00,0.00,VWS V14.01,2013-05-24 06:25:00,
2013-05-24 00:30:00,52.7,49.8,29.71,North,-999,9.0,14.0,90,0.05,,,0.00,0.00,VWS V14.01,2013-05-24 06:30:00,
2013-05-24 00:35:00,52.6,49.8,29.72,North,-999,0.0,14.0,90,0.05,,,0.00,0.00,VWS V14.01,2013-05-24 06:35:00,
2013-05-24 00:40:00,52.7,49.8,29.76,North,-999,19.0,19.0,90,0.00,,,0.00,0.00,VWS V14.01,2013-05-24 06:40:00,
2013-05-24 00:45:00,52.8,50.0,29.72,North,-999,10.0,19.0,90,0.00,,,0.00,0.00,VWS V14.01,2013-05-24 06:45:00,
2013-05-24 00:50:00,52.9,49.8,29.73,North,-999,0.0,0.0,89,0.03,,,0.03,0.00,VWS V14.01,2013-05-24 06:50:00,
2013-05-24 00:55:00,52.9,49.8,29.72,North,-999,0.0,0.0,89,0.03,,,0.03,0.00,VWS V14.01,2013-05-24 06:55:00,
2013-05-24 01:00:00,52.8,49.7,29.72,North,-999,0.0,5.0,89,0.03,,,0.03,0.00,VWS V14.01,2013-05-24 07:00:00,
2013-05-24 01:05:00,52.7,49.2,29.72,North,-999,0.0,9.0,88,0.03,,,0.03,0.00,VWS V14.01,2013-05-24 07:05:00,
2013-05-24 01:10:00,52.7,49.2,29.71,North,-999,3.0,6.0,88,0.03,,,0.03,0.00,VWS V14.01,2013-05-24 07:10:00,
2013-05-24 01:15:00,52.5,49.4,29.70,North,-999,0.0,7.0,89,0.03,,,0.03,0.00,VWS V14.01,2013-05-24 07:15:00,
2013-05-24 01:20:00,52.4,49.3,29.70,North,-999,0.0,0.0,89,0.03,,,0.03,0.00,VWS V14.01,2013-05-24 07:20:00,
2013-05-24 01:25:00,52.3,49.5,29.70,North,-999,0.0,0.0,90,0.03,,,0.03,0.00,VWS V14.01,2013-05-24 07:25:00,
2013-05-24 01:30:00,52.4,49.6,29.70,North,-999,0.0,0.0,90,0.03,,,0.03,0.00,VWS V14.01,2013-05-24 07:30:00,
2013-05-24 01:35:00,52.3,49.5,29.70,North,-999,0.0,0.0,90,0.03,,,0.03,0.00,VWS V14.01,2013-05-24 07:35:00,
2013-05-24 01:40:00,52.4,49.6,29.70,North,-999,0.0,0.0,90,0.03,,,0.03,0.00,VWS V14.01,2013-05-24 07:40:00,
2013-05-24 01:45:00,52.5,49.7,29.70,North,-999,0.0,5.0,90,0.03,,,0.03,0.00,VWS V14.01,2013-05-24 07:45:00,
2013-05-24 01:50:00,52.8,49.7,29.70,North,-999,0.0,0.0,89,0.02,,,0.03,0.00,VWS V14.01,2013-05-24 07:50:00,
2013-05-24 01:55:00,52.8,49.7,29.70,North,-999,4.0,4.0,89,0.02,,,0.03,0.00,VWS V14.01,2013-05-24 07:55:00,
2013-05-24 02:00:00,52.8,49.7,29.70,North,-999,4.0,7.0,89,0.00,,,0.03,0.00,VWS V14.01,2013-05-24 08:00:00,
2013-05-24 02:05:00,52.7,49.5,29.69,North,-999,0.0,7.0,89,0.00,,,0.03,0.00,VWS V14.01,2013-05-24 08:05:00,
2013-05-24 02:10:00,52.7,49.5,29.69,North,-999,0.0,0.0,89,0.00,,,0.03,0.00,VWS V14.01,2013-05-24 08:10:00,
2013-05-24 02:15:00,53.0,49.8,29.70,North,-999,0.0,0.0,89,0.00,,,0.03,0.00,VWS V14.01,2013-05-24 08:15:00,
2013-05-24 02:20:00,52.8,49.7,29.70,North,-999,6.0,7.0,89,0.00,,,0.03,0.00,VWS V14.01,2013-05-24 08:20:00,
2013-05-24 02:25:00,52.6,49.8,29.69,North,-999,0.0,7.0,90,0.00,,,0.03,0.00,VWS V14.01,2013-05-24 08:25:00,
2013-05-24 02:30:00,52.4,49.6,29.69,North,-999,0.0,0.0,90,0.00,,,0.03,0.00,VWS V14.01,2013-05-24 08:30:00,
2013-05-24 02:35:00,52.3,49.8,29.71,North,-999,10.0,11.0,91,0.00,,,0.03,0.00,VWS V14.01,2013-05-24 08:35:00,
2013-05-24 02:40:00,51.9,49.7,29.71,North,-999,5.0,13.0,92,0.00,,,0.03,0.00,VWS V14.01,2013-05-24 08:40:00,
2013-05-24 02:45:00,51.9,49.7,29.71,North,-999,7.0,13.0,92,0.00,,,0.03,0.00,VWS V14.01,2013-05-24 08:45:00,
2013-05-24 02:50:00,51.9,49.7,29.70,North,-999,5.0,7.0,92,0.00,,,0.03,0.00,VWS V14.01,2013-05-24 08:50:00,
2013-05-24 02:55:00,52.1,49.6,29.70,North,-999,12.0,14.0,91,0.00,,,0.03,0.00,VWS V14.01,2013-05-24 08:55:00,
2013-05-24 03:00:00,52.2,49.7,29.71,North,-999,8.0,14.0,91,0.00,,,0.03,0.00,VWS V14.01,2013-05-24 09:00:00,
2013-05-24 03:05:00,52.2,49.7,29.71,North,-999,6.0,14.0,91,0.00,,,0.03,0.00,VWS V14.01,2013-05-24 09:05:00,
2013-05-24 03:10:00,51.8,49.3,29.71,North,-999,7.0,7.0,91,0.00,,,0.03,0.00,VWS V14.01,2013-05-24 09:10:00,
2013-05-24 03:15:00,51.7,49.5,29.71,North,-999,7.0,11.0,92,0.00,,,0.03,0.00,VWS V14.01,2013-05-24 09:15:00,
2013-05-24 03:20:00,51.8,49.3,29.72,North,-999,5.0,11.0,91,0.00,,,0.03,0.00,VWS V14.01,2013-05-24 09:20:00,
2013-05-24 03:25:00,52.0,49.5,29.72,North,-999,4.0,11.0,91,0.00,,,0.03,0.00,VWS V14.01,2013-05-24 09:25:00,
2013-05-24 03:30:00,52.1,49.6,29.73,North,-999,14.0,14.0,91,0.00,,,0.03,0.00,VWS V14.01,2013-05-24 09:30:00,
2013-05-24 03:35:00,52.1,49.6,29.73,North,-999,7.0,14.0,91,0.00,,,0.03,0.00,VWS V14.01,2013-05-24 09:35:00,
2013-05-24 03:40:00,52.1,49.6,29.73,North,-999,10.0,15.0,91,0.00,,,0.03,0.00,VWS V14.01,2013-05-24 09:40:00,
2013-05-24 03:45:00,51.9,49.4,29.73,North,-999,14.0,18.0,91,0.00,,,0.03,0.00,VWS V14.01,2013-05-24 09:45:00,
2013-05-24 03:50:00,51.8,49.3,29.74,North,-999,15.0,17.0,91,0.00,,,0.03,0.00,VWS V14.01,2013-05-24 09:50:00,
2013-05-24 03:55:00,51.6,49.4,29.74,North,-999,15.0,19.0,92,0.00,,,0.03,0.00,VWS V14.01,2013-05-24 09:55:00,
2013-05-24 04:00:00,51.5,49.3,29.74,North,-999,12.0,17.0,92,0.00,,,0.03,0.00,VWS V14.01,2013-05-24 10:00:00,
2013-05-24 04:05:00,51.4,49.2,29.74,North,-999,10.0,17.0,92,0.00,,,0.03,0.00,VWS V14.01,2013-05-24 10:05:00,
2013-05-24 04:10:00,51.4,49.2,29.75,North,-999,8.0,11.0,92,0.00,,,0.03,0.00,VWS V14.01,2013-05-24 10:10:00,
2013-05-24 04:15:00,51.3,49.1,29.75,North,-999,6.0,11.0,92,0.00,,,0.03,0.00,VWS V14.01,2013-05-24 10:15:00,
2013-05-24 04:20:00,51.3,49.1,29.75,North,-999,11.0,13.0,92,0.00,,,0.03,0.00,VWS V14.01,2013-05-24 10:20:00,
2013-05-24 04:25:00,51.4,49.2,29.76,North,-999,6.0,13.0,92,0.00,,,0.03,0.00,VWS V14.01,2013-05-24 10:25:00,
2013-05-24 04:30:00,51.5,49.3,29.77,North,-999,4.0,9.0,92,0.00,,,0.03,0.00,VWS V14.01,2013-05-24 10:30:00,
2013-05-24 04:35:00,51.7,49.2,29.77,North,-999,5.0,9.0,91,0.00,,,0.03,0.00,VWS V14.01,2013-05-24 10:35:00,
2013-05-24 04:40:00,51.6,46.3,29.77,North,-999,9.0,12.0,82,0.00,,,0.03,0.00,VWS V14.01,2013-05-24 10:40:00,
2013-05-24 04:45:00,51.9,42.1,29.77,North,-999,13.0,15.0,69,0.00,,,0.03,0.00,VWS V14.01,2013-05-24 10:45:00,
2013-05-24 04:50:00,52.3,39.3,29.77,North,-999,16.0,20.0,61,0.00,,,0.03,0.00,VWS V14.01,2013-05-24 10:50:00,
2013-05-24 04:55:00,52.2,38.8,29.78,North,-999,17.0,20.0,60,0.00,,,0.03,0.00,VWS V14.01,2013-05-24 10:55:00,
2013-05-24 05:00:00,52.1,38.7,29.79,North,-999,12.0,16.0,60,0.00,,,0.03,0.00,VWS V14.01,2013-05-24 11:00:00,
2013-05-24 05:05:00,52.0,38.1,29.78,North,-999,13.0,21.0,59,0.00,,,0.03,0.00,VWS V14.01,2013-05-24 11:05:00,
2013-05-24 05:10:00,51.8,39.6,29.78,North,-999,13.0,21.0,63,0.00,,,0.03,0.00,VWS V14.01,2013-05-24 11:10:00,
2013-05-24 05:15:00,51.6,37.8,29.79,North,-999,7.0,22.0,59,0.00,,,0.03,0.00,VWS V14.01,2013-05-24 11:15:00,
2013-05-24 05:20:00,51.5,38.1,29.79,North,-999,7.0,16.0,60,0.00,,,0.03,0.00,VWS V14.01,2013-05-24 11:20:00,
2013-05-24 05:25:00,51.6,36.9,29.79,North,-999,9.0,16.0,57,0.00,,,0.03,0.00,VWS V14.01,2013-05-24 11:25:00,
2013-05-24 05:30:00,51.9,38.0,29.79,North,-999,8.0,19.0,59,0.00,,,0.03,0.00,VWS V14.01,2013-05-24 11:30:00,
2013-05-24 05:35:00,51.7,38.3,29.80,North,-999,2.0,19.0,60,0.00,,,0.03,0.00,VWS V14.01,2013-05-24 11:35:00,
2013-05-24 05:40:00,51.1,39.4,29.80,North,-999,9.0,11.0,64,0.00,,,0.03,0.00,VWS V14.01,2013-05-24 11:40:00,
2013-05-24 05:45:00,50.8,38.7,29.80,North,-999,13.0,20.0,63,0.00,,,0.03,0.00,VWS V14.01,2013-05-24 11:45:00,
2013-05-24 05:49:00,51.0,37.2,29.81,North,-999,17.0,27.0,59,0.00,,,0.03,0.00,VWS V14.01,2013-05-24 11:49:00,
2013-05-24 05:54:00,51.6,36.0,29.81,North,-999,20.0,27.0,55,0.00,,,0.03,5.00,VWS V14.01,2013-05-24 11:54:00,
2013-05-24 05:59:00,51.3,37.0,29.81,North,-999,18.0,19.0,58,0.00,,,0.03,5.00,VWS V14.01,2013-05-24 11:59:00,
2013-05-24 06:04:00,51.3,36.6,29.82,North,-999,10.0,21.0,57,0.00,,,0.03,7.00,VWS V14.01,2013-05-24 12:04:00,
2013-05-24 06:09:00,51.3,36.6,29.82,North,-999,14.0,15.0,57,0.00,,,0.03,11.00,VWS V14.01,2013-05-24 12:09:00,
2013-05-24 06:14:00,51.3,37.0,29.82,North,-999,14.0,17.0,58,0.00,,,0.03,28.00,VWS V14.01,2013-05-24 12:14:00,
2013-05-24 06:19:00,51.1,36.4,29.82,North,-999,13.0,19.0,57,0.00,,,0.03,25.00,VWS V14.01,2013-05-24 12:19:00,
2013-05-24 06:24:00,51.0,35.4,29.82,North,-999,11.0,22.0,55,0.00,,,0.03,19.00,VWS V14.01,2013-05-24 12:24:00,
2013-05-24 06:29:00,50.9,35.3,29.82,North,-999,17.0,18.0,55,0.00,,,0.03,19.00,VWS V14.01,2013-05-24 12:29:00,
2013-05-24 06:34:00,50.5,34.5,29.82,North,-999,17.0,19.0,54,0.00,,,0.03,19.00,VWS V14.01,2013-05-24 12:34:00,
2013-05-24 06:39:00,50.6,34.6,29.82,North,-999,15.0,18.0,54,0.00,,,0.03,19.00,VWS V14.01,2013-05-24 12:39:00,
2013-05-24 06:44:00,50.0,34.9,29.83,North,-999,15.0,21.0,56,0.00,,,0.03,21.00,VWS V14.01,2013-05-24 12:44:00,
2013-05-24 06:49:00,50.1,34.6,29.83,North,-999,9.0,19.0,55,0.00,,,0.03,23.00,VWS V14.01,2013-05-24 12:49:00,
2013-05-24 06:54:00,50.4,33.5,29.84,North,-999,12.0,19.0,52,0.00,,,0.03,26.00,VWS V14.01,2013-05-24 12:54:00,
2013-05-24 06:59:00,50.6,34.1,29.84,North,-999,6.0,14.0,53,0.00,,,0.03,26.00,VWS V14.01,2013-05-24 12:59:00,
2013-05-24 07:04:00,51.0,33.5,29.84,North,-999,8.0,14.0,51,0.00,,,0.03,26.00,VWS V14.01,2013-05-24 13:04:00,
2013-05-24 07:09:00,51.2,34.7,29.84,North,-999,5.0,10.0,53,0.00,,,0.03,32.00,VWS V14.01,2013-05-24 13:09:00,
2013-05-24 07:14:00,51.7,34.2,29.83,North,-999,8.0,10.0,51,0.00,,,0.03,37.00,VWS V14.01,2013-05-24 13:14:00,
2013-05-24 07:19:00,52.5,33.4,29.84,North,-999,14.0,14.0,48,0.00,,,0.03,49.00,VWS V14.01,2013-05-24 13:19:00,
2013-05-24 07:24:00,52.9,36.2,29.84,North,-999,19.0,22.0,53,0.00,,,0.03,72.00,VWS V14.01,2013-05-24 13:24:00,
2013-05-24 07:29:00,53.1,34.0,29.84,North,-999,19.0,24.0,48,0.00,,,0.03,113.00,VWS V14.01,2013-05-24 13:29:00,
2013-05-24 07:34:00,53.7,34.0,29.84,North,-999,22.0,27.0,47,0.00,,,0.03,165.00,VWS V14.01,2013-05-24 13:34:00,
2013-05-24 07:39:00,53.8,32.4,29.84,North,-999,27.0,29.0,44,0.00,,,0.03,223.00,VWS V14.01,2013-05-24 13:39:00,
2013-05-24 07:44:00,53.8,32.4,29.84,North,-999,24.0,30.0,44,0.00,,,0.03,281.00,VWS V14.01,2013-05-24 13:44:00,
2013-05-24 07:49:00,54.0,34.2,29.84,North,-999,25.0,27.0,47,0.00,,,0.03,329.00,VWS V14.01,2013-05-24 13:49:00,
2013-05-24 07:54:00,53.9,37.2,29.84,North,-999,17.0,27.0,53,0.00,,,0.03,353.00,VWS V14.01,2013-05-24 13:54:00,
2013-05-24 07:59:00,54.1,34.3,29.85,North,-999,17.0,25.0,47,0.00,,,0.03,371.00,VWS V14.01,2013-05-24 13:59:00,
2013-05-24 08:04:00,54.4,33.5,29.85,North,-999,19.0,26.0,45,0.00,,,0.03,387.00,VWS V14.01,2013-05-24 14:04:00,
2013-05-24 08:09:00,54.5,34.7,29.86,North,-999,18.0,24.0,47,0.00,,,0.03,403.00,VWS V14.01,2013-05-24 14:09:00,
2013-05-24 08:14:00,54.5,33.6,29.86,North,-999,23.0,26.0,45,0.00,,,0.03,417.00,VWS V14.01,2013-05-24 14:14:00,
2013-05-24 08:19:00,54.7,32.7,29.86,North,-999,18.0,25.0,43,0.00,,,0.03,434.00,VWS V14.01,2013-05-24 14:19:00,
2013-05-24 08:24:00,54.9,32.8,29.86,North,-999,21.0,26.0,43,0.00,,,0.03,450.00,VWS V14.01,2013-05-24 14:24:00,
2013-05-24 08:29:00,55.0,32.9,29.86,North,-999,21.0,28.0,43,0.00,,,0.03,468.00,VWS V14.01,2013-05-24 14:29:00,
2013-05-24 08:34:00,55.1,33.6,29.86,North,-999,21.0,28.0,44,0.00,,,0.03,485.00,VWS V14.01,2013-05-24 14:34:00,
2013-05-24 08:39:00,55.2,28.7,29.85,North,-999,25.0,29.0,36,0.00,,,0.03,501.00,VWS V14.01,2013-05-24 14:39:00,
2013-05-24 08:44:00,55.4,28.2,29.85,North,-999,29.0,31.0,35,0.00,,,0.03,517.00,VWS V14.01,2013-05-24 14:44:00,
2013-05-24 08:49:00,55.5,34.0,29.85,North,-999,27.0,28.0,44,0.00,,,0.03,529.00,VWS V14.01,2013-05-24 14:49:00,
2013-05-24 08:54:00,55.5,32.2,29.85,North,-999,24.0,31.0,41,0.00,,,0.03,543.00,VWS V14.01,2013-05-24 14:54:00,
2013-05-24 08:59:00,55.7,33.6,29.85,North,-999,24.0,29.0,43,0.00,,,0.03,557.00,VWS V14.01,2013-05-24 14:59:00,
2013-05-24 09:04:00,55.8,31.9,29.85,North,-999,20.0,30.0,40,0.00,,,0.03,570.00,VWS V14.01,2013-05-24 15:04:00,
2013-05-24 09:09:00,55.9,30.7,29.86,North,-999,18.0,25.0,38,0.00,,,0.03,584.00,VWS V14.01,2013-05-24 15:09:00,
2013-05-24 09:14:00,56.2,34.0,29.86,North,-999,19.0,25.0,43,0.00,,,0.03,596.00,VWS V14.01,2013-05-24 15:14:00,
2013-05-24 09:19:00,56.2,31.0,29.86,North,-999,15.0,21.0,38,0.00,,,0.03,608.00,VWS V14.01,2013-05-24 15:19:00,
2013-05-24 09:24:00,56.6,31.3,29.87,North,-999,17.0,21.0,38,0.00,,,0.03,626.00,VWS V14.01,2013-05-24 15:24:00,
2013-05-24 09:29:00,56.6,29.3,29.87,North,-999,13.0,17.0,35,0.00,,,0.03,638.00,VWS V14.01,2013-05-24 15:29:00,
2013-05-24 09:34:00,56.8,33.4,29.87,North,-999,16.0,20.0,41,0.00,,,0.03,652.00,VWS V14.01,2013-05-24 15:34:00,
2013-05-24 09:39:00,57.0,29.6,29.87,North,-999,21.0,23.0,35,0.00,,,0.03,668.00,VWS V14.01,2013-05-24 15:39:00,
2013-05-24 09:44:00,57.2,29.8,29.87,North,-999,18.0,23.0,35,0.00,,,0.03,680.00,VWS V14.01,2013-05-24 15:44:00,
2013-05-24 09:49:00,57.2,27.6,29.87,North,-999,17.0,21.0,32,0.00,,,0.03,693.00,VWS V14.01,2013-05-24 15:49:00,
2013-05-24 09:54:00,57.5,27.1,29.87,North,-999,20.0,24.0,31,0.00,,,0.03,705.00,VWS V14.01,2013-05-24 15:54:00,
2013-05-24 09:59:00,57.2,26.9,29.87,North,-999,15.0,19.0,31,0.00,,,0.03,719.00,VWS V14.01,2013-05-24 15:59:00,
2013-05-24 10:04:00,57.3,29.2,29.87,North,-999,15.0,23.0,34,0.00,,,0.03,729.00,VWS V14.01,2013-05-24 16:04:00,
2013-05-24 10:09:00,57.7,27.3,29.87,North,-999,18.0,24.0,31,0.00,,,0.03,744.00,VWS V14.01,2013-05-24 16:09:00,
2013-05-24 10:14:00,57.8,28.9,29.87,North,-999,19.0,24.0,33,0.00,,,0.03,758.00,VWS V14.01,2013-05-24 16:14:00,
2013-05-24 10:19:00,57.7,29.5,29.86,North,-999,17.0,19.0,34,0.00,,,0.03,772.00,VWS V14.01,2013-05-24 16:19:00,
2013-05-24 10:24:00,58.0,27.6,29.86,North,-999,13.0,22.0,31,0.00,,,0.03,779.00,VWS V14.01,2013-05-24 16:24:00,
2013-05-24 10:29:00,58.2,26.9,29.86,North,-999,20.0,22.0,30,0.00,,,0.03,791.00,VWS V14.01,2013-05-24 16:29:00,
2013-05-24 10:34:00,58.4,27.1,29.86,North,-999,15.0,24.0,30,0.00,,,0.03,800.00,VWS V14.01,2013-05-24 16:34:00,
2013-05-24 10:39:00,58.7,28.9,29.86,North,-999,20.0,22.0,32,0.00,,,0.03,812.00,VWS V14.01,2013-05-24 16:39:00,
2013-05-24 10:44:00,58.7,28.2,29.86,North,-999,18.0,26.0,31,0.00,,,0.03,824.00,VWS V14.01,2013-05-24 16:44:00,
2013-05-24 10:49:00,59.1,29.3,29.86,North,-999,24.0,24.0,32,0.00,,,0.03,833.00,VWS V14.01,2013-05-24 16:49:00,
2013-05-24 10:54:00,59.1,27.7,29.86,North,-999,18.0,24.0,30,0.00,,,0.03,847.00,VWS V14.01,2013-05-24 16:54:00,
2013-05-24 10:59:00,59.4,28.8,29.86,North,-999,14.0,17.0,31,0.00,,,0.03,858.00,VWS V14.01,2013-05-24 16:59:00,
2013-05-24 11:04:00,59.7,21.9,29.86,North,-999,15.0,17.0,23,0.00,,,0.03,867.00,VWS V14.01,2013-05-24 17:04:00,
2013-05-24 11:09:00,59.8,23.9,29.86,North,-999,11.0,18.0,25,0.00,,,0.03,877.00,VWS V14.01,2013-05-24 17:09:00,
2013-05-24 11:14:00,60.3,28.8,29.85,North,-999,6.0,18.0,30,0.00,,,0.03,886.00,VWS V14.01,2013-05-24 17:14:00,
2013-05-24 11:19:00,60.4,28.9,29.86,North,-999,12.0,20.0,30,0.00,,,0.03,898.00,VWS V14.01,2013-05-24 17:19:00,
2013-05-24 11:24:00,60.4,28.9,29.86,North,-999,13.0,22.0,30,0.00,,,0.03,905.00,VWS V14.01,2013-05-24 17:24:00,
2013-05-24 11:29:00,60.8,27.5,29.86,North,-999,14.0,17.0,28,0.00,,,0.03,916.00,VWS V14.01,2013-05-24 17:29:00,
2013-05-24 11:34:00,60.4,27.2,29.86,North,-999,11.0,20.0,28,0.00,,,0.03,919.00,VWS V14.01,2013-05-24 17:34:00,
2013-05-24 11:39:00,60.2,24.3,29.86,North,-999,4.0,4.0,25,0.00,,,0.03,925.00,VWS V14.01,2013-05-24 17:39:00,
2013-05-24 11:44:00,60.4,28.0,29.86,North,-999,13.0,13.0,29,0.00,,,0.03,930.00,VWS V14.01,2013-05-24 17:44:00,
2013-05-24 11:49:00,60.5,27.3,29.86,North,-999,11.0,11.0,28,0.00,,,0.03,935.00,VWS V14.01,2013-05-24 17:49:00,
2013-05-24 11:54:00,60.8,26.6,29.86,North,-999,10.0,14.0,27,0.00,,,0.03,946.00,VWS V14.01,2013-05-24 17:54:00,
2013-05-24 11:59:00,60.8,23.8,29.86,North,-999,4.0,8.0,24,0.00,,,0.03,947.00,VWS V14.01,2013-05-24 17:59:00,
2013-05-24 12:04:00,61.1,24.1,29.86,North,-999,0.0,11.0,24,0.00,,,0.03,954.00,VWS V14.01,2013-05-24 18:04:00,
2013-05-24 12:09:00,61.6,28.2,29.86,North,-999,11.0,12.0,28,0.00,,,0.03,960.00,VWS V14.01,2013-05-24 18:09:00,
2013-05-24 12:14:00,61.5,24.4,29.85,North,-999,4.0,12.0,24,0.00,,,0.03,967.00,VWS V14.01,2013-05-24 18:14:00,
2013-05-24 12:19:00,61.8,26.6,29.85,North,-999,13.0,13.0,26,0.00,,,0.03,972.00,VWS V14.01,2013-05-24 18:19:00,
2013-05-24 12:24:00,62.1,25.9,29.85,North,-999,13.0,13.0,25,0.00,,,0.03,979.00,VWS V14.01,2013-05-24 18:24:00,
2013-05-24 12:29:00,62.6,21.0,29.85,North,-999,7.0,12.0,20,0.00,,,0.03,981.00,VWS V14.01,2013-05-24 18:29:00,
2013-05-24 12:34:00,62.7,24.4,29.85,North,-999,6.0,12.0,23,0.00,,,0.03,983.00,VWS V14.01,2013-05-24 18:34:00,
2013-05-24 12:39:00,62.7,22.2,29.85,North,-999,3.0,6.0,21,0.00,,,0.03,986.00,VWS V14.01,2013-05-24 18:39:00,
2013-05-24 12:44:00,63.3,23.8,29.85,North,-999,6.0,6.0,22,0.00,,,0.03,988.00,VWS V14.01,2013-05-24 18:44:00,
2013-05-24 12:49:00,64.2,23.5,29.85,North,-999,11.0,14.0,21,0.00,,,0.03,991.00,VWS V14.01,2013-05-24 18:49:00,
2013-05-24 12:54:00,64.2,22.3,29.85,North,-999,6.0,14.0,20,0.00,,,0.03,993.00,VWS V14.01,2013-05-24 18:54:00,
2013-05-24 12:59:00,64.7,25.0,29.85,North,-999,12.0,18.0,22,0.00,,,0.03,995.00,VWS V14.01,2013-05-24 18:59:00,
2013-05-24 13:04:00,65.0,25.3,29.85,North,-999,5.0,18.0,22,0.00,,,0.03,995.00,VWS V14.01,2013-05-24 19:04:00,
2013-05-24 13:09:00,65.4,23.3,29.85,North,-999,13.0,16.0,20,0.00,,,0.03,998.00,VWS V14.01,2013-05-24 19:09:00,
2013-05-24 13:14:00,65.4,30.6,29.85,North,-999,14.0,18.0,27,0.00,,,0.03,998.00,VWS V14.01,2013-05-24 19:14:00,
2013-05-24 13:19:00,66.1,23.9,29.84,North,-999,10.0,10.0,20,0.00,,,0.03,997.00,VWS V14.01,2013-05-24 19:19:00,
2013-05-24 13:24:00,65.6,25.8,29.84,North,-999,15.0,18.0,22,0.00,,,0.03,995.00,VWS V14.01,2013-05-24 19:24:00,
2013-05-24 13:29:00,65.8,29.0,29.84,North,-999,18.0,18.0,25,0.00,,,0.03,993.00,VWS V14.01,2013-05-24 19:29:00,
2013-05-24 13:34:00,66.2,22.8,29.84,North,-999,2.0,20.0,19,0.00,,,0.03,993.00,VWS V14.01,2013-05-24 19:34:00,
2013-05-24 13:39:00,66.9,26.9,29.84,North,-999,9.0,17.0,22,0.00,,,0.03,991.00,VWS V14.01,2013-05-24 19:39:00,
2013-05-24 13:44:00,67.1,23.5,29.84,North,-999,13.0,19.0,19,0.00,,,0.03,988.00,VWS V14.01,2013-05-24 19:44:00,
2013-05-24 13:49:00,66.6,23.1,29.84,North,-999,5.0,5.0,19,0.00,,,0.03,986.00,VWS V14.01,2013-05-24 19:49:00,
2013-05-24 13:54:00,66.7,25.6,29.84,North,-999,4.0,7.0,21,0.00,,,0.03,983.00,VWS V14.01,2013-05-24 19:54:00,
2013-05-24 13:58:00,67.5,23.8,29.84,North,-999,18.0,18.0,19,0.00,,,0.03,977.00,VWS V14.01,2013-05-24 19:58:00,
2013-05-24 14:03:00,68.0,24.2,29.84,North,-999,11.0,20.0,19,0.00,,,0.03,976.00,VWS V14.01,2013-05-24 20:03:00,
2013-05-24 14:08:00,68.2,23.1,29.84,North,-999,9.0,17.0,18,0.00,,,0.03,972.00,VWS V14.01,2013-05-24 20:08:00,
2013-05-24 14:13:00,67.6,23.9,29.84,North,-999,9.0,17.0,19,0.00,,,0.03,969.00,VWS V14.01,2013-05-24 20:13:00,
2013-05-24 14:18:00,68.3,24.5,29.84,North,-999,12.0,17.0,19,0.00,,,0.03,963.00,VWS V14.01,2013-05-24 20:18:00,
2013-05-24 14:23:00,67.9,22.9,29.84,North,-999,7.0,17.0,18,0.00,,,0.03,958.00,VWS V14.01,2013-05-24 20:23:00,
2013-05-24 14:28:00,68.1,26.7,29.83,North,-999,10.0,13.0,21,0.00,,,0.03,949.00,VWS V14.01,2013-05-24 20:28:00,
2013-05-24 14:33:00,68.1,23.0,29.83,North,-999,6.0,13.0,18,0.00,,,0.03,946.00,VWS V14.01,2013-05-24 20:33:00,
2013-05-24 14:38:00,68.2,25.6,29.83,North,-999,10.0,11.0,20,0.00,,,0.03,939.00,VWS V14.01,2013-05-24 20:38:00,
2013-05-24 14:43:00,68.7,26.0,29.83,North,-999,9.0,16.0,20,0.00,,,0.03,930.00,VWS V14.01,2013-05-24 20:43:00,
2013-05-24 14:48:00,68.7,27.2,29.83,North,-999,15.0,18.0,21,0.00,,,0.03,926.00,VWS V14.01,2013-05-24 20:48:00,
2013-05-24 14:53:00,68.6,26.0,29.83,North,-999,11.0,18.0,20,0.00,,,0.03,918.00,VWS V14.01,2013-05-24 20:53:00,
2013-05-24 14:58:00,68.6,26.0,29.83,North,-999,9.0,10.0,20,0.00,,,0.03,909.00,VWS V14.01,2013-05-24 20:58:00,
2013-05-24 15:03:00,69.1,27.6,29.83,North,-999,12.0,23.0,21,0.00,,,0.03,902.00,VWS V14.01,2013-05-24 21:03:00,
2013-05-24 15:08:00,69.2,26.5,29.83,North,-999,14.0,19.0,20,0.00,,,0.03,891.00,VWS V14.01,2013-05-24 21:08:00,
2013-05-24 15:13:00,69.2,26.5,29.83,North,-999,21.0,23.0,20,0.00,,,0.03,884.00,VWS V14.01,2013-05-24 21:13:00,
2013-05-24 15:18:00,69.4,27.8,29.83,North,-999,15.0,22.0,21,0.00,,,0.03,874.00,VWS V14.01,2013-05-24 21:18:00,
2013-05-24 15:23:00,69.5,27.9,29.82,North,-999,10.0,22.0,21,0.00,,,0.03,865.00,VWS V14.01,2013-05-24 21:23:00,
2013-05-24 15:28:00,69.7,29.2,29.83,North,-999,14.0,19.0,22,0.00,,,0.03,853.00,VWS V14.01,2013-05-24 21:28:00,
2013-05-24 15:33:00,69.9,29.4,29.83,North,-999,17.0,19.0,22,0.00,,,0.03,844.00,VWS V14.01,2013-05-24 21:33:00,
2013-05-24 15:38:00,69.1,27.6,29.83,North,-999,12.0,14.0,21,0.00,,,0.03,833.00,VWS V14.01,2013-05-24 21:38:00,
2013-05-24 15:43:00,69.1,28.7,29.82,North,-999,13.0,23.0,22,0.00,,,0.03,830.00,VWS V14.01,2013-05-24 21:43:00,
2013-05-24 15:48:00,68.8,28.4,29.82,North,-999,13.0,18.0,22,0.00,,,0.03,812.00,VWS V14.01,2013-05-24 21:48:00,
2013-05-24 15:53:00,69.0,27.5,29.82,North,-999,9.0,19.0,21,0.00,,,0.03,782.00,VWS V14.01,2013-05-24 21:53:00,
2013-05-24 15:58:00,69.2,27.6,29.82,North,-999,4.0,15.0,21,0.00,,,0.03,754.00,VWS V14.01,2013-05-24 21:58:00,
2013-05-24 16:03:00,69.3,29.9,29.82,North,-999,10.0,17.0,23,0.00,,,0.03,761.00,VWS V14.01,2013-05-24 22:03:00,
2013-05-24 16:08:00,69.5,26.7,29.82,North,-999,8.0,10.0,20,0.00,,,0.03,775.00,VWS V14.01,2013-05-24 22:08:00,
2013-05-24 16:13:00,69.5,29.0,29.82,North,-999,12.0,15.0,22,0.00,,,0.03,761.00,VWS V14.01,2013-05-24 22:13:00,
2013-05-24 16:18:00,69.3,27.7,29.82,North,-999,14.0,16.0,21,0.00,,,0.03,724.00,VWS V14.01,2013-05-24 22:18:00,
2013-05-24 16:23:00,69.2,28.8,29.82,North,-999,14.0,17.0,22,0.00,,,0.03,666.00,VWS V14.01,2013-05-24 22:23:00,
2013-05-24 16:28:00,69.1,28.7,29.82,North,-999,10.0,17.0,22,0.00,,,0.03,592.00,VWS V14.01,2013-05-24 22:28:00,
2013-05-24 16:33:00,69.1,28.7,29.82,North,-999,10.0,17.0,22,0.00,,,0.03,705.00,VWS V14.01,2013-05-24 22:33:00,
2013-05-24 16:38:00,69.4,30.0,29.82,North,-999,11.0,13.0,23,0.00,,,0.03,705.00,VWS V14.01,2013-05-24 22:38:00,
2013-05-24 16:43:00,69.5,30.1,29.82,North,-999,14.0,18.0,23,0.00,,,0.03,689.00,VWS V14.01,2013-05-24 22:43:00,
2013-05-24 16:48:00,69.8,30.4,29.82,North,-999,11.0,13.0,23,0.00,,,0.03,671.00,VWS V14.01,2013-05-24 22:48:00,
2013-05-24 16:53:00,69.9,31.5,29.82,North,-999,11.0,21.0,24,0.00,,,0.03,652.00,VWS V14.01,2013-05-24 22:53:00,
2013-05-24 16:58:00,70.1,30.6,29.81,North,-999,7.0,13.0,23,0.00,,,0.03,642.00,VWS V14.01,2013-05-24 22:58:00,
2013-05-24 17:03:00,69.9,29.4,29.81,North,-999,12.0,15.0,22,0.00,,,0.03,626.00,VWS V14.01,2013-05-24 23:03:00,
2013-05-24 17:08:00,69.6,29.1,29.81,North,-999,9.0,12.0,22,0.00,,,0.03,619.00,VWS V14.01,2013-05-24 23:08:00,
2013-05-24 17:13:00,69.9,29.4,29.81,North,-999,5.0,16.0,22,0.00,,,0.03,599.00,VWS V14.01,2013-05-24 23:13:00,
2013-05-24 17:18:00,69.9,30.5,29.81,North,-999,10.0,15.0,23,0.00,,,0.03,582.00,VWS V14.01,2013-05-24 23:18:00,
2013-05-24 17:23:00,70.2,29.6,29.81,North,-999,9.0,17.0,22,0.00,,,0.03,568.00,VWS V14.01,2013-05-24 23:23:00,
2013-05-24 17:28:00,70.1,29.5,29.81,North,-999,10.0,11.0,22,0.00,,,0.03,552.00,VWS V14.01,2013-05-24 23:28:00,
2013-05-24 17:33:00,70.2,30.7,29.81,North,-999,12.0,16.0,23,0.00,,,0.03,534.00,VWS V14.01,2013-05-24 23:33:00,
2013-05-24 17:38:00,70.0,29.4,29.81,North,-999,11.0,14.0,22,0.00,,,0.03,524.00,VWS V14.01,2013-05-24 23:38:00,
2013-05-24 17:43:00,70.2,29.6,29.81,North,-999,16.0,23.0,22,0.00,,,0.03,506.00,VWS V14.01,2013-05-24 23:43:00,
2013-05-24 17:48:00,70.2,28.5,29.81,North,-999,15.0,15.0,21,0.00,,,0.03,489.00,VWS V14.01,2013-05-24 23:48:00,
2013-05-24 17:53:00,70.0,28.3,29.81,North,-999,10.0,15.0,21,0.00,,,0.03,469.00,VWS V14.01,2013-05-24 23:53:00,
2013-05-24 17:58:00,70.1,29.5,29.81,North,-999,10.0,15.0,22,0.00,,,0.03,455.00,VWS V14.01,2013-05-24 23:58:00,
2013-05-24 18:03:00,70.4,28.6,29.80,North,-999,9.0,15.0,21,0.00,,,0.03,438.00,VWS V14.01,2013-05-25 00:03:00,
2013-05-24 18:08:00,70.4,29.8,29.81,North,-999,11.0,13.0,22,0.00,,,0.03,425.00,VWS V14.01,2013-05-25 00:08:00,
2013-05-24 18:13:00,70.3,28.5,29.80,North,-999,3.0,16.0,21,0.00,,,0.03,408.00,VWS V14.01,2013-05-25 00:13:00,
2013-05-24 18:18:00,70.2,29.6,29.80,North,-999,7.0,7.0,22,0.00,,,0.03,390.00,VWS V14.01,2013-05-25 00:18:00,
2013-05-24 18:23:00,70.2,29.6,29.80,North,-999,4.0,14.0,22,0.00,,,0.03,373.00,VWS V14.01,2013-05-25 00:23:00,
2013-05-24 18:28:00,70.1,29.5,29.80,North,-999,6.0,6.0,22,0.00,,,0.03,357.00,VWS V14.01,2013-05-25 00:28:00,
2013-05-24 18:33:00,70.3,30.8,29.80,North,-999,6.0,11.0,23,0.00,,,0.03,339.00,VWS V14.01,2013-05-25 00:33:00,
2013-05-24 18:38:00,70.3,29.7,29.80,North,-999,5.0,9.0,22,0.00,,,0.03,327.00,VWS V14.01,2013-05-25 00:38:00,
2013-05-24 18:43:00,70.4,30.9,29.80,North,-999,10.0,12.0,23,0.00,,,0.03,309.00,VWS V14.01,2013-05-25 00:43:00,
2013-05-24 18:48:00,70.5,31.0,29.80,North,-999,12.0,13.0,23,0.00,,,0.03,292.00,VWS V14.01,2013-05-25 00:48:00,
2013-05-24 18:53:00,70.5,29.9,29.80,North,-999,5.0,13.0,22,0.00,,,0.03,271.00,VWS V14.01,2013-05-25 00:53:00,
2013-05-24 18:58:00,70.6,32.1,29.80,North,-999,5.0,5.0,24,0.00,,,0.03,246.00,VWS V14.01,2013-05-25 00:58:00,
2013-05-24 19:03:00,70.8,31.2,29.80,North,-999,5.0,10.0,23,0.00,,,0.03,234.00,VWS V14.01,2013-05-25 01:03:00,
2013-05-24 19:08:00,70.6,31.0,29.80,North,-999,7.0,9.0,23,0.00,,,0.03,213.00,VWS V14.01,2013-05-25 01:08:00,
2013-05-24 19:13:00,70.3,30.8,29.80,North,-999,6.0,11.0,23,0.00,,,0.03,195.00,VWS V14.01,2013-05-25 01:13:00,
2013-05-24 19:18:00,70.2,31.8,29.80,North,-999,6.0,7.0,24,0.00,,,0.03,178.00,VWS V14.01,2013-05-25 01:18:00,
2013-05-24 19:23:00,70.2,31.8,29.80,North,-999,5.0,11.0,24,0.00,,,0.03,160.00,VWS V14.01,2013-05-25 01:23:00,
2013-05-24 19:28:00,70.3,31.8,29.80,North,-999,3.0,3.0,24,0.00,,,0.03,141.00,VWS V14.01,2013-05-25 01:28:00,
2013-05-24 19:33:00,70.4,31.9,29.80,North,-999,3.0,8.0,24,0.00,,,0.03,123.00,VWS V14.01,2013-05-25 01:33:00,
2013-05-24 19:37:00,70.3,31.8,29.80,North,-999,6.0,6.0,24,0.00,,,0.03,109.00,VWS V14.01,2013-05-25 01:37:00,
2013-05-24 19:42:00,70.3,33.8,29.80,North,-999,4.0,7.0,26,0.00,,,0.03,93.00,VWS V14.01,2013-05-25 01:42:00,
2013-05-24 19:47:00,70.0,33.6,29.80,North,-999,5.0,9.0,26,0.00,,,0.03,77.00,VWS V14.01,2013-05-25 01:47:00,
2013-05-24 19:52:00,69.7,32.3,29.81,North,-999,4.0,9.0,25,0.00,,,0.03,65.00,VWS V14.01,2013-05-25 01:52:00,
2013-05-24 19:57:00,69.5,34.1,29.81,North,-999,3.0,9.0,27,0.00,,,0.03,49.00,VWS V14.01,2013-05-25 01:57:00,
2013-05-24 20:02:00,69.3,34.8,29.81,North,-999,0.0,4.0,28,0.00,,,0.03,39.00,VWS V14.01,2013-05-25 02:02:00,
2013-05-24 20:07:00,69.0,33.7,29.81,North,-999,2.0,4.0,27,0.00,,,0.03,32.00,VWS V14.01,2013-05-25 02:07:00,
2013-05-24 20:12:00,68.8,33.5,29.81,North,-999,2.0,5.0,27,0.00,,,0.03,23.00,VWS V14.01,2013-05-25 02:12:00,
2013-05-24 20:17:00,68.6,32.4,29.81,North,-999,0.0,5.0,26,0.00,,,0.03,19.00,VWS V14.01,2013-05-25 02:17:00,
2013-05-24 20:22:00,68.5,32.3,29.81,North,-999,0.0,0.0,26,0.00,,,0.03,16.00,VWS V14.01,2013-05-25 02:22:00,
2013-05-24 20:27:00,68.4,32.2,29.81,North,-999,0.0,0.0,26,0.00,,,0.03,12.00,VWS V14.01,2013-05-25 02:27:00,
2013-05-24 20:32:00,68.3,34.0,29.81,North,-999,0.0,0.0,28,0.00,,,0.03,9.00,VWS V14.01,2013-05-25 02:32:00,
2013-05-24 20:37:00,68.1,33.8,29.81,North,-999,0.0,0.0,28,0.00,,,0.03,7.00,VWS V14.01,2013-05-25 02:37:00,
2013-05-24 20:42:00,67.5,35.0,29.81,North,-999,0.0,0.0,30,0.00,,,0.03,5.00,VWS V14.01,2013-05-25 02:42:00,
2013-05-24 20:47:00,66.8,33.5,29.81,North,-999,0.0,0.0,29,0.00,,,0.03,0.00,VWS V14.01,2013-05-25 02:47:00,
2013-05-24 20:52:00,66.2,35.5,29.81,North,-999,3.0,4.0,32,0.00,,,0.03,0.00,VWS V14.01,2013-05-25 02:52:00,
2013-05-24 20:57:00,64.7,37.8,29.81,North,-999,2.0,5.0,37,0.00,,,0.03,0.00,VWS V14.01,2013-05-25 02:57:00,
2013-05-24 21:02:00,63.6,37.5,29.81,North,-999,4.0,6.0,38,0.00,,,0.03,0.00,VWS V14.01,2013-05-25 03:02:00,
2013-05-24 21:07:00,63.2,39.8,29.81,North,-999,0.0,6.0,42,0.00,,,0.03,0.00,VWS V14.01,2013-05-25 03:07:00,
2013-05-24 21:12:00,62.4,39.6,29.82,North,-999,5.0,5.0,43,0.00,,,0.03,0.00,VWS V14.01,2013-05-25 03:12:00,
2013-05-24 21:17:00,61.6,39.5,29.82,North,-999,5.0,6.0,44,0.00,,,0.03,0.00,VWS V14.01,2013-05-25 03:17:00,
2013-05-24 21:22:00,61.6,38.3,29.82,North,-999,4.0,6.0,42,0.00,,,0.03,0.00,VWS V14.01,2013-05-25 03:22:00,
2013-05-24 21:27:00,61.7,37.8,29.82,North,-999,0.0,6.0,41,0.00,,,0.03,0.00,VWS V14.01,2013-05-25 03:27:00,
2013-05-24 21:32:00,61.4,37.5,29.82,North,-999,0.0,0.0,41,0.00,,,0.03,0.00,VWS V14.01,2013-05-25 03:32:00,
2013-05-24 21:37:00,61.2,40.3,29.83,North,-999,4.0,5.0,46,0.00,,,0.03,0.00,VWS V14.01,2013-05-25 03:37:00,
2013-05-24 21:42:00,59.6,40.4,29.83,North,-999,2.0,4.0,49,0.00,,,0.03,0.00,VWS V14.01,2013-05-25 03:42:00,
2013-05-24 21:47:00,58.6,41.0,29.83,North,-999,0.0,4.0,52,0.00,,,0.03,0.00,VWS V14.01,2013-05-25 03:47:00,
2013-05-24 21:52:00,57.6,42.0,29.84,North,-999,0.0,0.0,56,0.00,,,0.03,0.00,VWS V14.01,2013-05-25 03:52:00,
2013-05-24 21:57:00,56.9,38.5,29.84,North,-999,4.0,7.0,50,0.00,,,0.03,0.00,VWS V14.01,2013-05-25 03:57:00,
2013-05-24 22:01:00,58.9,34.6,29.83,North,-999,4.0,5.0,40,0.00,,,0.03,0.00,VWS V14.01,2013-05-25 04:01:00,
2013-05-24 22:06:00,61.0,34.6,29.84,North,-999,10.0,13.0,37,0.00,,,0.03,0.00,VWS V14.01,2013-05-25 04:06:00,
2013-05-24 22:11:00,62.2,33.5,29.84,North,-999,9.0,13.0,34,0.00,,,0.03,0.00,VWS V14.01,2013-05-25 04:11:00,
2013-05-24 22:16:00,61.3,34.8,29.84,North,-999,8.0,13.0,37,0.00,,,0.03,0.00,VWS V14.01,2013-05-25 04:16:00,
2013-05-24 22:21:00,60.7,35.6,29.84,North,-999,4.0,10.0,39,0.00,,,0.03,0.00,VWS V14.01,2013-05-25 04:21:00,
2013-05-24 22:26:00,59.5,36.4,29.84,North,-999,4.0,10.0,42,0.00,,,0.03,0.00,VWS V14.01,2013-05-25 04:26:00,
2013-05-24 22:31:00,59.2,34.9,29.84,North,-999,4.0,10.0,40,0.00,,,0.03,0.00,VWS V14.01,2013-05-25 04:31:00,
2013-05-24 22:36:00,59.4,35.7,29.84,North,-999,4.0,10.0,41,0.00,,,0.03,0.00,VWS V14.01,2013-05-25 04:36:00,
2013-05-24 22:41:00,58.9,36.5,29.85,North,-999,6.0,10.0,43,0.00,,,0.03,0.00,VWS V14.01,2013-05-25 04:41:00,
2013-05-24 22:46:00,57.9,36.7,29.84,North,-999,5.0,10.0,45,0.00,,,0.03,0.00,VWS V14.01,2013-05-25 04:46:00,
2013-05-24 22:51:00,57.8,36.0,29.84,North,-999,10.0,10.0,44,0.00,,,0.03,0.00,VWS V14.01,2013-05-25 04:51:00,
2013-05-24 22:56:00,58.9,34.6,29.84,North,-999,7.0,10.0,40,0.00,,,0.03,0.00,VWS V14.01,2013-05-25 04:56:00,
2013-05-24 23:01:00,58.8,35.2,29.84,North,-999,7.0,9.0,41,0.00,,,0.03,0.00,VWS V14.01,2013-05-25 05:01:00,
2013-05-24 23:06:00,58.6,36.8,29.85,North,-999,5.0,9.0,44,0.00,,,0.03,0.00,VWS V14.01,2013-05-25 05:06:00,
2013-05-24 23:11:00,59.0,33.5,29.85,North,-999,6.0,10.0,38,0.00,,,0.03,0.00,VWS V14.01,2013-05-25 05:11:00,
2013-05-24 23:16:00,57.7,37.6,29.84,North,-999,9.0,10.0,47,0.00,,,0.03,0.00,VWS V14.01,2013-05-25 05:16:00,
2013-05-24 23:21:00,56.6,37.2,29.85,North,-999,6.0,7.0,48,0.00,,,0.03,0.00,VWS V14.01,2013-05-25 05:21:00,
2013-05-24 23:26:00,56.3,37.4,29.84,North,-999,4.0,9.0,49,0.00,,,0.03,0.00,VWS V14.01,2013-05-25 05:26:00,
2013-05-24 23:31:00,56.2,36.8,29.84,North,-999,0.0,4.0,48,0.00,,,0.03,0.00,VWS V14.01,2013-05-25 05:31:00,
2013-05-24 23:35:00,56.2,36.3,29.85,North,-999,7.0,8.0,47,0.00,,,0.03,0.00,VWS V14.01,2013-05-25 05:35:00,
2013-05-24 23:40:00,56.1,35.6,29.84,North,-999,4.0,9.0,46,0.00,,,0.03,0.00,VWS V14.01,2013-05-25 05:40:00,
2013-05-24 23:45:00,57.2,34.9,29.84,North,-999,10.0,13.0,43,0.00,,,0.03,0.00,VWS V14.01,2013-05-25 05:45:00,
2013-05-24 23:50:00,57.6,34.7,29.84,North,-999,7.0,11.0,42,0.00,,,0.03,0.00,VWS V14.01,2013-05-25 05:50:00,
2013-05-24 23:55:00,57.8,36.0,29.84,North,-999,11.0,13.0,44,0.00,,,0.03,0.00,VWS V14.01,2013-05-25 05:55:00,